TimeEDT,TemperatureF,Dew PointF,Humidity,Sea Level PressureIn,VisibilityMPH,Wind Direction,Wind SpeedMPH,Gust SpeedMPH,PrecipitationIn,Events,Conditions,WindDirDegrees,DateUTC
12:15 AM,59.0,57.2,94,30.28,8.0,Calm,Calm,-,N/A,,Clear,0,2013-04-27 04:15:00
12:35 AM,57.2,57.2,100,30.27,7.0,Calm,Calm,-,N/A,,Clear,0,2013-04-27 04:35:00
12:55 AM,57.2,57.2,100,30.27,5.0,Calm,Calm,-,N/A,,Clear,0,2013-04-27 04:55:00
1:15 AM,55.4,55.4,100,30.26,4.0,Calm,Calm,-,N/A,,Clear,0,2013-04-27 05:15:00
1:35 AM,55.4,55.4,100,30.25,5.0,Calm,Calm,-,N/A,,Clear,0,2013-04-27 05:35:00
1:55 AM,55.4,55.4,100,30.25,7.0,Calm,Calm,-,N/A,,Clear,0,2013-04-27 05:55:00
2:15 AM,55.4,55.4,100,30.24,5.0,Calm,Calm,-,N/A,,Clear,0,2013-04-27 06:15:00
2:35 AM,55.4,55.4,100,30.24,5.0,Calm,Calm,-,N/A,,Clear,0,2013-04-27 06:35:00
2:55 AM,53.6,53.6,100,30.24,5.0,Calm,Calm,-,N/A,,Clear,0,2013-04-27 06:55:00
3:15 AM,55.4,55.4,100,30.24,5.0,Calm,Calm,-,N/A,,Clear,0,2013-04-27 07:15:00
3:35 AM,55.4,55.4,100,30.24,5.0,Calm,Calm,-,N/A,,Clear,0,2013-04-27 07:35:00
3:55 AM,55.4,55.4,100,30.25,5.0,Calm,Calm,-,N/A,,Clear,0,2013-04-27 07:55:00
4:15 AM,55.4,55.4,100,30.24,4.0,Calm,Calm,-,N/A,,Clear,0,2013-04-27 08:15:00
4:35 AM,57.2,57.2,100,30.24,5.0,Calm,Calm,-,N/A,,Clear,0,2013-04-27 08:35:00
4:55 AM,55.4,55.4,100,30.25,5.0,Calm,Calm,-,N/A,,Clear,0,2013-04-27 08:55:00
5:15 AM,55.4,55.4,100,30.24,5.0,Calm,Calm,-,N/A,,Clear,0,2013-04-27 09:15:00
5:35 AM,55.4,55.4,100,30.24,4.0,Calm,Calm,-,N/A,,Clear,0,2013-04-27 09:35:00
5:55 AM,55.4,55.4,100,30.24,4.0,Calm,Calm,-,N/A,,Clear,0,2013-04-27 09:55:00
6:15 AM,55.4,55.4,100,30.24,5.0,Calm,Calm,-,N/A,,Clear,0,2013-04-27 10:15:00
6:50 AM,57.2,57.2,100,30.24,7.0,North,4.6,-,N/A,,Clear,10,2013-04-27 10:50:00
8:50 AM,66.2,62.6,88,30.26,7.0,NE,5.8,-,N/A,,Clear,50,2013-04-27 12:50:00
10:50 AM,75.2,62.6,65,30.27,7.0,East,9.2,-,N/A,,Scattered Clouds,80,2013-04-27 14:50:00
11:50 AM,75.2,60.8,61,30.27,10.0,East,13.8,-,N/A,,Mostly Cloudy,90,2013-04-27 15:50:00
12:50 PM,77.0,59.0,54,30.25,10.0,East,12.7,-,N/A,,Mostly Cloudy,90,2013-04-27 16:50:00
1:50 PM,77.0,57.2,50,30.22,10.0,East,11.5,-,N/A,,Mostly Cloudy,90,2013-04-27 17:50:00
2:50 PM,77.0,55.4,47,30.22,10.0,East,8.1,-,N/A,,Mostly Cloudy,90,2013-04-27 18:50:00
3:50 PM,80.6,57.2,45,30.20,10.0,Variable,5.8,-,N/A,,Mostly Cloudy,0,2013-04-27 19:50:00
4:50 PM,77.0,57.2,50,30.18,10.0,ENE,9.2,-,N/A,,Scattered Clouds,60,2013-04-27 20:50:00
5:50 PM,77.0,55.4,47,30.18,10.0,ENE,10.4,-,N/A,,Partly Cloudy,60,2013-04-27 21:50:00
6:50 PM,75.2,57.2,53,30.17,10.0,ENE,12.7,-,N/A,,Clear,70,2013-04-27 22:50:00
7:50 PM,71.6,55.4,57,30.17,10.0,ENE,4.6,-,N/A,,Clear,70,2013-04-27 23:50:00
8:15 PM,71.6,55.4,57,30.18,10.0,ENE,4.6,-,N/A,,Clear,70,2013-04-28 00:15:00
8:35 PM,68.0,55.4,64,30.18,10.0,ENE,4.6,-,N/A,,Clear,60,2013-04-28 00:35:00
8:55 PM,68.0,57.2,68,30.18,10.0,Calm,Calm,-,N/A,,Clear,0,2013-04-28 00:55:00
9:15 PM,66.2,57.2,73,30.19,10.0,Calm,Calm,-,N/A,,Clear,0,2013-04-28 01:15:00
9:35 PM,66.2,59.0,78,30.19,10.0,Calm,Calm,-,N/A,,Clear,0,2013-04-28 01:35:00
9:55 PM,62.6,59.0,88,30.19,10.0,Calm,Calm,-,N/A,,Clear,0,2013-04-28 01:55:00
10:15 PM,62.6,59.0,88,30.20,10.0,Calm,Calm,-,N/A,,Clear,0,2013-04-28 02:15:00
10:35 PM,60.8,59.0,94,30.20,10.0,Calm,Calm,-,N/A,,Clear,0,2013-04-28 02:35:00
10:55 PM,60.8,59.0,94,30.19,10.0,Calm,Calm,-,N/A,,Clear,0,2013-04-28 02:55:00
11:15 PM,59.0,57.2,94,30.20,10.0,Calm,Calm,-,N/A,,Clear,0,2013-04-28 03:15:00
11:35 PM,59.0,57.2,94,30.20,10.0,Calm,Calm,-,N/A,,Clear,0,2013-04-28 03:35:00
11:55 PM,59.0,59.0,100,30.20,8.0,Calm,Calm,-,N/A,,Clear,0,2013-04-28 03:55:00